Time,TemperatureF,DewpointF,PressureIn,WindDirection,WindDirectionDegrees,WindSpeedMPH,WindSpeedGustMPH,Humidity,HourlyPrecipIn,Conditions,Clouds,dailyrainin,SolarRadiationWatts/m^2,SoftwareType,DateUTC
2013-05-29 00:01:00,50.0,44.0,-100.00,SW,219,5.0,11.0,81,0.00,,,0.15,131.000000,,2013-05-29 00:01:00,
2013-05-29 00:22:00,50.0,44.0,-100.00,SW,219,5.0,11.0,81,0.00,,,0.15,131.000000,,2013-05-29 00:22:00,
2013-05-29 00:32:00,50.0,44.0,-100.00,SW,219,5.0,11.0,81,0.00,,,0.15,131.000000,,2013-05-29 00:32:00,
2013-05-29 00:42:00,50.0,44.0,-100.00,SW,219,5.0,11.0,81,0.00,,,0.15,131.000000,,2013-05-29 00:42:00,
2013-05-29 00:52:00,50.0,44.0,-100.00,SW,219,5.0,11.0,81,0.00,,,0.15,131.000000,,2013-05-29 00:52:00,
2013-05-29 01:01:00,52.0,46.0,-100.00,SSW,213,5.0,10.0,79,0.00,,,0.14,102.000000,,2013-05-29 01:01:00,
2013-05-29 01:22:00,52.0,46.0,-100.00,SSW,213,5.0,10.0,79,0.00,,,0.14,102.000000,,2013-05-29 01:22:00,
2013-05-29 01:32:00,52.0,46.0,-100.00,SSW,213,5.0,10.0,79,0.00,,,0.14,102.000000,,2013-05-29 01:32:00,
2013-05-29 01:42:00,52.0,46.0,-100.00,SSW,213,5.0,10.0,79,0.00,,,0.14,102.000000,,2013-05-29 01:42:00,
2013-05-29 01:52:00,52.0,46.0,-100.00,SSW,213,5.0,10.0,79,0.00,,,0.14,102.000000,,2013-05-29 01:52:00,
2013-05-29 02:01:00,49.0,43.0,-100.00,WSW,245,6.0,10.0,81,0.00,,,0.12,55.000000,,2013-05-29 02:01:00,
2013-05-29 02:22:00,49.0,43.0,-100.00,WSW,245,6.0,10.0,81,0.00,,,0.12,55.000000,,2013-05-29 02:22:00,
2013-05-29 02:32:00,49.0,43.0,-100.00,WSW,245,6.0,10.0,81,0.00,,,0.12,55.000000,,2013-05-29 02:32:00,
2013-05-29 02:42:00,49.0,43.0,-100.00,WSW,245,6.0,10.0,81,0.00,,,0.12,55.000000,,2013-05-29 02:42:00,
2013-05-29 02:52:00,49.0,43.0,-100.00,WSW,245,6.0,10.0,81,0.00,,,0.12,55.000000,,2013-05-29 02:52:00,
2013-05-29 03:01:00,47.0,43.0,-100.00,WSW,242,4.0,6.0,85,0.00,,,0.10,13.000000,,2013-05-29 03:01:00,
2013-05-29 03:22:00,47.0,43.0,-100.00,WSW,242,4.0,6.0,85,0.00,,,0.10,13.000000,,2013-05-29 03:22:00,
2013-05-29 03:33:00,47.0,43.0,-100.00,WSW,242,4.0,6.0,85,0.00,,,0.10,13.000000,,2013-05-29 03:33:00,
2013-05-29 03:43:00,47.0,43.0,-100.00,WSW,242,4.0,6.0,85,0.00,,,0.10,13.000000,,2013-05-29 03:43:00,
2013-05-29 03:53:00,47.0,43.0,-100.00,WSW,242,4.0,6.0,85,0.00,,,0.10,13.000000,,2013-05-29 03:53:00,
2013-05-29 04:01:00,46.0,40.0,-100.00,South,172,3.0,7.0,80,0.00,,,0.08,2.000000,,2013-05-29 04:01:00,
2013-05-29 04:23:00,46.0,40.0,-100.00,South,172,3.0,7.0,80,0.00,,,0.08,2.000000,,2013-05-29 04:23:00,
2013-05-29 04:33:00,46.0,40.0,-100.00,South,172,3.0,7.0,80,0.00,,,0.08,2.000000,,2013-05-29 04:33:00,
2013-05-29 04:42:00,46.0,40.0,-100.00,South,172,3.0,7.0,80,0.00,,,0.08,2.000000,,2013-05-29 04:42:00,
2013-05-29 04:52:00,46.0,40.0,-100.00,South,172,3.0,7.0,80,0.00,,,0.08,2.000000,,2013-05-29 04:52:00,
2013-05-29 05:01:00,45.0,42.0,-100.00,East,97,3.0,6.0,90,0.00,,,0.06,0.000000,,2013-05-29 05:01:00,
2013-05-29 05:22:00,45.0,42.0,-100.00,East,97,3.0,6.0,90,0.00,,,0.06,0.000000,,2013-05-29 05:22:00,
2013-05-29 05:33:00,45.0,42.0,-100.00,East,97,3.0,6.0,90,0.00,,,0.06,0.000000,,2013-05-29 05:33:00,
2013-05-29 05:42:00,45.0,42.0,-100.00,East,97,3.0,6.0,90,0.00,,,0.06,0.000000,,2013-05-29 05:42:00,
2013-05-29 05:52:00,45.0,42.0,-100.00,East,97,3.0,6.0,90,0.00,,,0.06,0.000000,,2013-05-29 05:52:00,
2013-05-29 06:01:00,45.0,43.0,-100.00,SE,145,2.0,6.0,91,0.00,,,0.05,0.000000,,2013-05-29 06:01:00,
2013-05-29 06:22:00,45.0,43.0,-100.00,SE,145,2.0,6.0,91,0.00,,,0.05,0.000000,,2013-05-29 06:22:00,
2013-05-29 06:32:00,45.0,43.0,-100.00,SE,145,2.0,6.0,91,0.00,,,0.05,0.000000,,2013-05-29 06:32:00,
2013-05-29 06:42:00,45.0,43.0,-100.00,SE,145,2.0,6.0,91,0.00,,,0.05,0.000000,,2013-05-29 06:42:00,
2013-05-29 06:52:00,45.0,43.0,-100.00,SE,145,2.0,6.0,91,0.00,,,0.05,0.000000,,2013-05-29 06:52:00,
2013-05-29 07:01:00,45.0,40.0,-100.00,East,94,2.0,6.0,84,0.00,,,0.04,0.000000,,2013-05-29 07:01:00,
2013-05-29 07:22:00,45.0,40.0,-100.00,East,94,2.0,6.0,84,0.00,,,0.04,0.000000,,2013-05-29 07:22:00,
2013-05-29 07:34:00,45.0,40.0,-100.00,East,94,2.0,6.0,84,0.00,,,0.04,0.000000,,2013-05-29 07:34:00,
2013-05-29 07:42:00,45.0,40.0,-100.00,East,94,2.0,6.0,84,0.00,,,0.04,0.000000,,2013-05-29 07:42:00,
2013-05-29 07:52:00,45.0,40.0,-100.00,East,94,2.0,6.0,84,0.00,,,0.04,0.000000,,2013-05-29 07:52:00,
2013-05-29 08:01:00,43.0,41.0,-100.00,SE,135,2.0,4.0,91,0.00,,,0.04,0.000000,,2013-05-29 08:01:00,
2013-05-29 08:22:00,43.0,41.0,-100.00,SE,135,2.0,4.0,91,0.00,,,0.04,0.000000,,2013-05-29 08:22:00,
2013-05-29 08:32:00,43.0,41.0,-100.00,SE,135,2.0,4.0,91,0.00,,,0.04,0.000000,,2013-05-29 08:32:00,
2013-05-29 08:42:00,43.0,41.0,-100.00,SE,135,2.0,4.0,91,0.00,,,0.04,0.000000,,2013-05-29 08:42:00,
2013-05-29 08:52:00,43.0,41.0,-100.00,SE,135,2.0,4.0,91,0.00,,,0.04,0.000000,,2013-05-29 08:52:00,
2013-05-29 09:01:00,43.0,39.0,-100.00,SE,125,2.0,4.0,85,0.00,,,0.04,0.000000,,2013-05-29 09:01:00,
2013-05-29 09:22:00,43.0,39.0,-100.00,SE,125,2.0,4.0,85,0.00,,,0.04,0.000000,,2013-05-29 09:22:00,
2013-05-29 09:33:00,43.0,39.0,-100.00,SE,125,2.0,4.0,85,0.00,,,0.04,0.000000,,2013-05-29 09:33:00,
2013-05-29 09:42:00,43.0,39.0,-100.00,SE,125,2.0,4.0,85,0.00,,,0.04,0.000000,,2013-05-29 09:42:00,
2013-05-29 09:52:00,43.0,39.0,-100.00,SE,125,2.0,4.0,85,0.00,,,0.04,0.000000,,2013-05-29 09:52:00,
2013-05-29 10:01:00,44.0,39.0,-100.00,South,172,3.0,7.0,83,0.00,,,0.04,0.000000,,2013-05-29 10:01:00,
2013-05-29 10:22:00,44.0,39.0,-100.00,South,172,3.0,7.0,83,0.00,,,0.04,0.000000,,2013-05-29 10:22:00,
2013-05-29 10:33:00,44.0,39.0,-100.00,South,172,3.0,7.0,83,0.00,,,0.04,0.000000,,2013-05-29 10:33:00,
2013-05-29 10:42:00,44.0,39.0,-100.00,South,172,3.0,7.0,83,0.00,,,0.04,0.000000,,2013-05-29 10:42:00,
2013-05-29 10:53:00,44.0,39.0,-100.00,South,172,3.0,7.0,83,0.00,,,0.04,0.000000,,2013-05-29 10:53:00,
2013-05-29 11:01:00,42.0,38.0,-100.00,SSE,160,2.0,4.0,84,0.00,,,0.03,0.000000,,2013-05-29 11:01:00,
2013-05-29 11:22:00,42.0,38.0,-100.00,SSE,160,2.0,4.0,84,0.00,,,0.03,0.000000,,2013-05-29 11:22:00,
2013-05-29 11:32:00,42.0,38.0,-100.00,SSE,160,2.0,4.0,84,0.00,,,0.03,0.000000,,2013-05-29 11:32:00,
2013-05-29 11:42:00,42.0,38.0,-100.00,SSE,160,2.0,4.0,84,0.00,,,0.03,0.000000,,2013-05-29 11:42:00,
2013-05-29 11:52:00,42.0,38.0,-100.00,SSE,160,2.0,4.0,84,0.00,,,0.03,0.000000,,2013-05-29 11:52:00,
2013-05-29 12:01:00,42.0,34.0,-100.00,ESE,103,4.0,8.0,74,0.00,,,0.03,0.000000,,2013-05-29 12:01:00,
2013-05-29 12:22:00,42.0,34.0,-100.00,ESE,103,4.0,8.0,74,0.00,,,0.03,0.000000,,2013-05-29 12:22:00,
2013-05-29 12:32:00,42.0,34.0,-100.00,ESE,103,4.0,8.0,74,0.00,,,0.03,0.000000,,2013-05-29 12:32:00,
2013-05-29 12:42:00,42.0,34.0,-100.00,ESE,103,4.0,8.0,74,0.00,,,0.03,0.000000,,2013-05-29 12:42:00,
2013-05-29 12:52:00,42.0,34.0,-100.00,ESE,103,4.0,8.0,74,0.00,,,0.03,0.000000,,2013-05-29 12:52:00,
2013-05-29 13:01:00,43.0,36.0,-100.00,ESE,111,2.0,6.0,76,0.00,,,0.03,21.000000,,2013-05-29 13:01:00,
2013-05-29 13:22:00,43.0,36.0,-100.00,ESE,111,2.0,6.0,76,0.00,,,0.03,21.000000,,2013-05-29 13:22:00,
2013-05-29 13:32:00,43.0,36.0,-100.00,ESE,111,2.0,6.0,76,0.00,,,0.03,21.000000,,2013-05-29 13:32:00,
2013-05-29 13:42:00,43.0,36.0,-100.00,ESE,111,2.0,6.0,76,0.00,,,0.03,21.000000,,2013-05-29 13:42:00,
2013-05-29 13:53:00,43.0,36.0,-100.00,ESE,111,2.0,6.0,76,0.00,,,0.03,21.000000,,2013-05-29 13:53:00,
2013-05-29 14:01:00,45.0,39.0,-100.00,ESE,104,6.0,8.0,79,0.00,,,-99.99,56.000000,,2013-05-29 14:01:00,
2013-05-29 14:22:00,45.0,39.0,-100.00,ESE,104,6.0,8.0,79,0.00,,,-99.99,56.000000,,2013-05-29 14:22:00,
2013-05-29 14:32:00,45.0,39.0,-100.00,ESE,104,6.0,8.0,79,0.00,,,-99.99,56.000000,,2013-05-29 14:32:00,
2013-05-29 14:42:00,45.0,39.0,-100.00,ESE,104,6.0,8.0,79,0.00,,,-99.99,56.000000,,2013-05-29 14:42:00,
2013-05-29 14:52:00,45.0,39.0,-100.00,ESE,104,6.0,8.0,79,0.00,,,-99.99,56.000000,,2013-05-29 14:52:00,
2013-05-29 15:01:00,45.0,39.0,-100.00,ESE,109,4.0,8.0,79,0.00,,,-99.99,76.000000,,2013-05-29 15:01:00,
2013-05-29 15:22:00,45.0,39.0,-100.00,ESE,109,4.0,8.0,79,0.00,,,-99.99,76.000000,,2013-05-29 15:22:00,
2013-05-29 15:33:00,45.0,39.0,-100.00,ESE,109,4.0,8.0,79,0.00,,,-99.99,76.000000,,2013-05-29 15:33:00,
2013-05-29 15:42:00,45.0,39.0,-100.00,ESE,109,4.0,8.0,79,0.00,,,-99.99,76.000000,,2013-05-29 15:42:00,
2013-05-29 15:53:00,45.0,39.0,-100.00,ESE,109,4.0,8.0,79,0.00,,,-99.99,76.000000,,2013-05-29 15:53:00,
2013-05-29 16:01:00,49.0,40.0,-100.00,ESE,102,5.0,9.0,71,0.00,,,0.03,155.000000,,2013-05-29 16:01:00,
2013-05-29 16:22:00,49.0,40.0,-100.00,ESE,102,5.0,9.0,71,0.00,,,0.03,155.000000,,2013-05-29 16:22:00,
2013-05-29 16:33:00,49.0,40.0,-100.00,ESE,102,5.0,9.0,71,0.00,,,0.03,155.000000,,2013-05-29 16:33:00,
2013-05-29 16:42:00,49.0,40.0,-100.00,ESE,102,5.0,9.0,71,0.00,,,0.03,155.000000,,2013-05-29 16:42:00,
2013-05-29 16:52:00,49.0,40.0,-100.00,ESE,102,5.0,9.0,71,0.00,,,0.03,155.000000,,2013-05-29 16:52:00,
2013-05-29 17:01:00,50.0,40.0,-100.00,ESE,121,3.0,9.0,68,0.00,,,0.03,135.000000,,2013-05-29 17:01:00,
2013-05-29 17:22:00,50.0,40.0,-100.00,ESE,121,3.0,9.0,68,0.00,,,0.03,135.000000,,2013-05-29 17:22:00,
2013-05-29 17:32:00,50.0,40.0,-100.00,ESE,121,3.0,9.0,68,0.00,,,0.03,135.000000,,2013-05-29 17:32:00,
2013-05-29 17:42:00,50.0,40.0,-100.00,ESE,121,3.0,9.0,68,0.00,,,0.03,135.000000,,2013-05-29 17:42:00,
2013-05-29 17:52:00,50.0,40.0,-100.00,ESE,121,3.0,9.0,68,0.00,,,0.03,135.000000,,2013-05-29 17:52:00,
2013-05-29 18:01:00,51.0,41.0,-100.00,SSW,212,2.0,6.0,68,0.00,,,0.03,129.000000,,2013-05-29 18:01:00,
2013-05-29 18:22:00,51.0,41.0,-100.00,SSW,212,2.0,6.0,68,0.00,,,0.03,129.000000,,2013-05-29 18:22:00,
2013-05-29 18:32:00,51.0,41.0,-100.00,SSW,212,2.0,6.0,68,0.00,,,0.03,129.000000,,2013-05-29 18:32:00,
2013-05-29 18:42:00,51.0,41.0,-100.00,SSW,212,2.0,6.0,68,0.00,,,0.03,129.000000,,2013-05-29 18:42:00,
2013-05-29 18:52:00,51.0,41.0,-100.00,SSW,212,2.0,6.0,68,0.00,,,0.03,129.000000,,2013-05-29 18:52:00,
2013-05-29 19:01:00,48.0,40.0,-100.00,SW,229,4.0,8.0,75,0.00,,,0.03,93.000000,,2013-05-29 19:01:00,
2013-05-29 19:22:00,48.0,40.0,-100.00,SW,229,4.0,8.0,75,0.00,,,0.03,93.000000,,2013-05-29 19:22:00,
2013-05-29 19:32:00,48.0,40.0,-100.00,SW,229,4.0,8.0,75,0.00,,,0.03,93.000000,,2013-05-29 19:32:00,
2013-05-29 19:44:00,48.0,40.0,-100.00,SW,229,4.0,8.0,75,0.00,,,0.03,93.000000,,2013-05-29 19:44:00,
2013-05-29 19:53:00,48.0,40.0,-100.00,SW,229,4.0,8.0,75,0.00,,,0.03,93.000000,,2013-05-29 19:53:00,
2013-05-29 20:01:00,44.0,43.0,-100.00,South,171,4.0,9.0,96,0.03,,,0.06,88.000000,,2013-05-29 20:01:00,
2013-05-29 20:23:00,44.0,43.0,-100.00,South,171,4.0,9.0,96,0.03,,,0.06,88.000000,,2013-05-29 20:23:00,
2013-05-29 20:33:00,44.0,43.0,-100.00,South,171,4.0,9.0,96,0.03,,,0.06,88.000000,,2013-05-29 20:33:00,
2013-05-29 20:42:00,44.0,43.0,-100.00,South,171,4.0,9.0,96,0.03,,,0.06,88.000000,,2013-05-29 20:42:00,
2013-05-29 20:52:00,44.0,43.0,-100.00,South,171,4.0,9.0,96,0.03,,,0.06,88.000000,,2013-05-29 20:52:00,
2013-05-29 21:01:00,44.0,43.0,-100.00,SSW,206,5.0,9.0,96,0.01,,,0.04,101.000000,,2013-05-29 21:01:00,
2013-05-29 21:22:00,44.0,43.0,-100.00,SSW,206,5.0,9.0,96,0.01,,,0.04,101.000000,,2013-05-29 21:22:00,
2013-05-29 21:33:00,44.0,43.0,-100.00,SSW,206,5.0,9.0,96,0.01,,,0.04,101.000000,,2013-05-29 21:33:00,
2013-05-29 21:44:00,44.0,43.0,-100.00,SSW,206,5.0,9.0,96,0.01,,,0.04,101.000000,,2013-05-29 21:44:00,
2013-05-29 21:53:00,44.0,43.0,-100.00,SSW,206,5.0,9.0,96,0.01,,,0.04,101.000000,,2013-05-29 21:53:00,
2013-05-29 22:01:00,46.0,45.0,-100.00,SW,227,3.0,7.0,97,0.00,,,0.04,129.000000,,2013-05-29 22:01:00,
2013-05-29 22:23:00,46.0,45.0,-100.00,SW,227,3.0,7.0,97,0.00,,,0.04,129.000000,,2013-05-29 22:23:00,
2013-05-29 22:34:00,46.0,45.0,-100.00,SW,227,3.0,7.0,97,0.00,,,0.04,129.000000,,2013-05-29 22:34:00,
2013-05-29 22:42:00,46.0,45.0,-100.00,SW,227,3.0,7.0,97,0.00,,,0.04,129.000000,,2013-05-29 22:42:00,
2013-05-29 22:53:00,46.0,45.0,-100.00,SW,227,3.0,7.0,97,0.00,,,0.04,129.000000,,2013-05-29 22:53:00,
2013-05-29 23:01:00,45.0,43.0,-100.00,SSW,193,3.0,5.0,92,0.00,,,0.04,73.000000,,2013-05-29 23:01:00,
2013-05-29 23:22:00,45.0,43.0,-100.00,SSW,193,3.0,5.0,92,0.00,,,0.04,73.000000,,2013-05-29 23:22:00,
2013-05-29 23:33:00,45.0,43.0,-100.00,SSW,193,3.0,5.0,92,0.00,,,0.04,73.000000,,2013-05-29 23:33:00,
2013-05-29 23:42:00,45.0,43.0,-100.00,SSW,193,3.0,5.0,92,0.00,,,0.04,73.000000,,2013-05-29 23:42:00,
2013-05-29 23:53:00,45.0,43.0,-100.00,SSW,193,3.0,5.0,92,0.00,,,0.04,73.000000,,2013-05-29 23:53:00,